Weather History for KWRL - January, 2014

Change the Weather History Date:

Sunday, January 5, 2014

  Actual Average Record
Temperature  
Mean Temperature -3 °F 16 °F  
Max Temperature 12 °F 30 °F 50 °F (1966)
Min Temperature -18 °F 3 °F -32 °F (1979)
Degree Days  
Heating Degree Days 68 49  
Month to date heating degree days 254 245  
Since 1 July heating degree days 3672 3608  
Cooling Degree Days 0 0  
Month to date cooling degree days 0 0  
Year to date cooling degree days 0 0  
Moisture  
Dew Point -2 °F    
Average Humidity 74    
Maximum Humidity 92    
Minimum Humidity 56    
Precipitation  
Precipitation 0.01 in 0.01 in 0.31 in (1987)
Month to date precipitation 0.13 0.04  
Year to date precipitation 0.13 0.04  
Sea Level Pressure  
Sea Level Pressure 30.47 in    
Wind  
Wind Speed 11 mph (NW)    
Max Wind Speed 22 mph    
Max Gust Speed 28 mph    
Visibility 6 miles    
Events Snow    
T = Trace of Precipitation, MM = Missing Value Source: NWS Daily Summary

Daily Weather History Graph

Daily Weather History Graph

Search for Another Location

Airport or City:

Trip Planner

Search our weather history database for the weather conditions in past years. The results will help you decide how hot, cold, wet, or windy it might be!

Date:

Astronomy

Jan. 05, 2014 Rise Set
Actual Time 7:46 AM MST 4:48 PM MST
Civil Twilight 7:13 AM MST 5:21 PM MST
Nautical Twilight 6:37 AM MST 5:57 PM MST
Astronomical Twilight 6:02 AM MST 6:32 PM MST
Moon 10:18 AM MST 10:31 PM MST
Length of Visible Light 10h 07m
Length of Day
9h 02m
Waxing Crescent, 25% of the Moon is Illuminated
Jan 5
Waxing Crescent
Jan 7
First Quarter
Jan 15
Full
Jan 23
Last Quarter
Jan 30
New

Hourly Weather History & Observations

Time (MST) Temp. Windchill Dew Point Humidity Pressure Visibility Wind Dir Wind Speed Gust Speed Precip Events Conditions
12:10 AM 12.0 °F -0.4 °F 9.0 °F 88% 30.12 in 1.5 mi North 9.2 mph - 0.00 in Snow Light Snow
12:18 AM 12.0 °F -1.3 °F 9.0 °F 88% 30.13 in 1.8 mi North 10.4 mph - 0.00 in Snow Light Snow
12:25 AM 12.0 °F 2.7 °F 8.1 °F 84% 30.13 in 2.0 mi North 5.8 mph - 0.00 in Snow Light Snow
12:32 AM 12.0 °F 2.7 °F 9.0 °F 88% 30.13 in 1.5 mi North 5.8 mph - 0.00 in Snow Light Snow
12:53 AM 10.9 °F 0.2 °F 8.1 °F 88% 30.32 in 1.5 mi North 6.9 mph - 0.00 in Snow Light Snow
1:24 AM 10.9 °F 1.4 °F 8.1 °F 88% 30.15 in 2.5 mi North 5.8 mph - 0.00 in Snow Light Snow
1:33 AM 10.9 °F 2.9 °F 7.0 °F 84% 30.16 in 1.8 mi North 4.6 mph - 0.00 in Snow Light Snow
1:39 AM 10.9 °F 0.2 °F 7.0 °F 84% 30.16 in 3.0 mi North 6.9 mph - 0.00 in Snow Light Snow
1:53 AM 10.9 °F 0.2 °F 6.1 °F 81% 30.35 in 3.0 mi NNW 6.9 mph - 0.00 in Snow Light Snow
1:57 AM 10.9 °F 0.2 °F 6.1 °F 81% 30.18 in 1.8 mi NW 6.9 mph - 0.00 in Snow Light Snow
2:41 AM 10.0 °F -2.9 °F 6.1 °F 84% 30.20 in 2.5 mi NW 9.2 mph - 0.01 in Snow Light Snow
2:48 AM 10.4 °F -3.3 °F 6.8 °F 85% 30.21 in 3.0 mi NW 10.4 mph - 0.01 in Snow Light Snow
2:53 AM 10.0 °F -1.9 °F 5.0 °F 80% 30.39 in 3.0 mi NW 8.1 mph - 0.01 in Snow Light Snow
3:02 AM 10.0 °F -1.9 °F 5.0 °F 80% 30.21 in 1.8 mi NNW 8.1 mph - 0.00 in Snow Light Snow
3:34 AM 10.0 °F -5.9 °F 5.0 °F 80% 30.22 in 3.0 mi NW 13.8 mph - 0.00 in Snow Light Snow
3:44 AM 10.0 °F -8.1 °F 3.0 °F 73% 30.22 in 9.0 mi NW 18.4 mph 25.3 mph 0.00 in Snow Light Snow
3:53 AM 10.0 °F -8.6 °F 3.0 °F 73% 30.41 in 6.0 mi NW 19.6 mph - 0.00 in   Overcast
4:53 AM 8.1 °F -7.0 °F 1.9 °F 76% 30.48 in 10.0 mi NNW 11.5 mph - 0.00 in   Overcast
5:53 AM 6.1 °F -15.2 °F -0.9 °F 73% 30.51 in 7.0 mi NW 23.0 mph - 0.00 in   Overcast
6:53 AM 6.1 °F -10.2 °F -0.9 °F 73% 30.55 in 10.0 mi WNW 12.7 mph - 0.00 in   Overcast
7:53 AM 3.9 °F -15.0 °F -2.9 °F 73% 30.60 in 8.0 mi NNW 16.1 mph - 0.00 in Snow Light Snow
8:53 AM 5.0 °F -13.6 °F -5.1 °F 63% 30.64 in 10.0 mi NW 16.1 mph - 0.00 in   Overcast
9:53 AM 5.0 °F -10.0 °F -5.1 °F 63% 30.66 in 10.0 mi North 10.4 mph - N/A   Overcast
10:53 AM 5.0 °F -8.1 °F -6.0 °F 61% 30.69 in 10.0 mi NNW 8.1 mph - N/A   Overcast
11:53 AM 5.0 °F -14.2 °F -8.0 °F 55% 30.69 in 10.0 mi NNW 17.3 mph - N/A   Mostly Cloudy
12:53 PM 5.0 °F -10.8 °F -8.0 °F 55% 30.69 in 10.0 mi NW 11.5 mph - N/A   Clear
1:45 PM 5.0 °F -10.8 °F -9.0 °F 52% 30.45 in 5.0 mi WNW 11.5 mph - N/A   Haze
1:53 PM 3.9 °F -10.4 °F -8.0 °F 58% 30.70 in 10.0 mi WNW 9.2 mph - N/A   Partly Cloudy
2:53 PM 3.9 °F -13.0 °F -9.0 °F 55% 30.72 in 10.0 mi NW 12.7 mph - N/A   Clear
3:53 PM 3.0 °F -10.5 °F -9.0 °F 57% 30.74 in 10.0 mi NW 8.1 mph - N/A   Clear
4:53 PM -0.9 °F -11.0 °F -11.9 °F 60% 30.76 in 10.0 mi WSW 4.6 mph - N/A   Clear
5:53 PM -8.0 °F -21.0 °F -15.0 °F 71% 30.79 in 10.0 mi South 5.8 mph - N/A   Clear
6:53 PM -7.1 °F -23.9 °F -13.0 °F 75% 30.78 in 10.0 mi SE 9.2 mph - N/A   Clear
7:53 PM -7.1 °F -25.9 °F -16.1 °F 65% 30.76 in 10.0 mi SSE 11.5 mph - N/A   Clear
8:53 PM -9.9 °F -29.6 °F -16.1 °F 74% 30.74 in 10.0 mi ESE 11.5 mph - N/A   Clear
9:53 PM -9.9 °F - -18.0 °F 68% 30.72 in 10.0 mi Calm Calm - N/A   Clear
10:53 PM -13.0 °F -30.0 °F -18.9 °F 75% 30.72 in 10.0 mi South 8.1 mph - N/A   Clear
11:53 PM -14.1 °F -28.3 °F -20.0 °F 75% 30.70 in 10.0 mi SSE 5.8 mph - N/A   Clear